When you browse on this site, cookies collect data to enhance your experience and personalize the content and advertising you see.
Visit our Privacy Policy to learn more. By continuing to use the site, you agree to this use of cookies and data.
  • In Deutschland
  • Länderverzeichnis
  • Für 7 Tage
  • Wassertemperatur
  • Wetterkarte
  • Widgets
  • user-avatar
    Anmelden

    Stündliche Wetter Tirana

    Heute, 10 Dezember, Dienstag

    Zeit Temperatur Niederschläge Wind Luftdruck Luftfeuchtigkeit
    00:00 +11°C° 0.9 mm 4 m/S 748 mmHg 79%
    01:00 +11°C° 0.9 mm 4 m/S 748 mmHg 83%
    02:00 +11°C° 1.4 mm 4 m/S 748 mmHg 83%
    03:00 +11°C° 1.4 mm 3 m/S 747 mmHg 83%
    04:00 +11°C° 1.4 mm 3 m/S 747 mmHg 83%
    05:00 +10°C° 2.6 mm 3 m/S 747 mmHg 86%
    06:00 +10°C° 2.6 mm 3 m/S 747 mmHg 89%
    07:00 +10°C° 2.6 mm 3 m/S 747 mmHg 91%
    08:00 +10°C° 1.7 mm 4 m/S 747 mmHg 91%
    09:00 +10°C° 1.7 mm 4 m/S 747 mmHg 91%
    10:00 +10°C° 1.7 mm 4 m/S 747 mmHg 91%
    11:00 +10°C° 0.8 mm 4 m/S 747 mmHg 91%
    12:00 +10°C° 0.8 mm 4 m/S 747 mmHg 91%
    13:00 +10°C° 0.8 mm 4 m/S 747 mmHg 91%
    14:00 +10°C° 0.6 mm 4 m/S 746 mmHg 91%
    15:00 +10°C° 0.6 mm 4 m/S 746 mmHg 91%
    16:00 +9°C° 0.6 mm 5 m/S 746 mmHg 90%
    17:00 +9°C° 0.1 mm 5 m/S 746 mmHg 89%
    18:00 +10°C° 0.1 mm 4 m/S 747 mmHg 87%
    19:00 +10°C° 0.1 mm 4 m/S 747 mmHg 86%
    20:00 +10°C° 0 mm 4 m/S 747 mmHg 85%
    21:00 +10°C° 0 mm 4 m/S 747 mmHg 84%
    22:00 +10°C° 0 mm 4 m/S 747 mmHg 82%
    23:00 +10°C° 0 mm 4 m/S 747 mmHg 82%

    Morgen, 11 Dezember, Mittwoch

    Zeit Temperatur Niederschläge Wind Luftdruck Luftfeuchtigkeit
    00:00 +10°C° 0 mm 4 m/S 747 mmHg 81%
    01:00 +10°C° 0 mm 4 m/S 748 mmHg 81%
    02:00 +9°C° 0 mm 5 m/S 747 mmHg 80%
    03:00 +8°C° 0 mm 5 m/S 747 mmHg 79%
    04:00 +8°C° 0 mm 6 m/S 747 mmHg 79%
    05:00 +8°C° 0 mm 6 m/S 747 mmHg 78%
    06:00 +8°C° 0 mm 6 m/S 747 mmHg 77%
    07:00 +8°C° 0 mm 6 m/S 748 mmHg 77%
    08:00 +9°C° 0 mm 6 m/S 748 mmHg 73%
    09:00 +10°C° 0 mm 6 m/S 748 mmHg 69%
    10:00 +12°C° 0 mm 5 m/S 748 mmHg 65%
    11:00 +13°C° 0 mm 5 m/S 748 mmHg 62%
    12:00 +13°C° 0 mm 5 m/S 748 mmHg 59%
    13:00 +14°C° 0 mm 5 m/S 748 mmHg 56%
    14:00 +13°C° 0 mm 5 m/S 748 mmHg 61%
    15:00 +12°C° 0 mm 5 m/S 747 mmHg 65%
    16:00 +10°C° 0 mm 5 m/S 747 mmHg 69%
    17:00 +9°C° 0 mm 5 m/S 748 mmHg 70%
    18:00 +9°C° 0 mm 5 m/S 748 mmHg 71%
    19:00 +8°C° 0 mm 4 m/S 748 mmHg 72%
    20:00 +8°C° 0 mm 4 m/S 748 mmHg 73%
    21:00 +7°C° 0 mm 4 m/S 748 mmHg 73%
    22:00 +8°C° 0 mm 3 m/S 748 mmHg 73%
    23:00 +8°C° 0 mm 3 m/S 748 mmHg 73%

    übermorgen, 12 Dezember, Donnerstag

    Zeit Temperatur Niederschläge Wind Luftdruck Luftfeuchtigkeit
    00:00 +7°C° 0 mm 3 m/S 748 mmHg 73%
    01:00 +7°C° 0 mm 3 m/S 748 mmHg 73%
    02:00 +7°C° 0 mm 3 m/S 747 mmHg 73%
    03:00 +7°C° 0 mm 2 m/S 747 mmHg 73%
    04:00 +7°C° 0 mm 2 m/S 747 mmHg 73%
    05:00 +7°C° 0 mm 2 m/S 747 mmHg 73%
    06:00 +8°C° 0 mm 1 m/S 747 mmHg 73%
    07:00 +7°C° 0 mm 1 m/S 747 mmHg 74%
    08:00 +9°C° 0 mm 1 m/S 747 mmHg 70%
    09:00 +10°C° 0 mm 1 m/S 747 mmHg 67%
    10:00 +12°C° 0 mm 1 m/S 747 mmHg 63%
    11:00 +12°C° 0 mm 1 m/S 747 mmHg 63%
    12:00 +12°C° 0 mm 1 m/S 746 mmHg 62%
    13:00 +13°C° 0 mm 2 m/S 746 mmHg 62%
    14:00 +12°C° 0 mm 2 m/S 746 mmHg 66%
    15:00 +10°C° 0 mm 2 m/S 746 mmHg 70%
    16:00 +10°C° 0 mm 2 m/S 746 mmHg 74%
    17:00 +9°C° 0.1 mm 3 m/S 746 mmHg 74%
    18:00 +9°C° 0.1 mm 3 m/S 746 mmHg 75%
    19:00 +8°C° 0.1 mm 4 m/S 746 mmHg 76%
    20:00 +8°C° 0.3 mm 4 m/S 746 mmHg 76%
    21:00 +8°C° 0.3 mm 5 m/S 746 mmHg 76%
    22:00 +8°C° 0.3 mm 5 m/S 746 mmHg 76%
    23:00 +8°C° 1 mm 5 m/S 746 mmHg 79%

    13 Dezember, Freitag

    Zeit Temperatur Niederschläge Wind Luftdruck Luftfeuchtigkeit
    00:00 +8°C° 1 mm 5 m/S 745 mmHg 82%
    01:00 +8°C° 1 mm 4 m/S 745 mmHg 85%
    02:00 +8°C° 0.7 mm 4 m/S 745 mmHg 86%
    03:00 +8°C° 0.7 mm 5 m/S 745 mmHg 87%
    04:00 +8°C° 0.7 mm 5 m/S 745 mmHg 88%
    05:00 +7°C° 0.5 mm 4 m/S 745 mmHg 87%
    06:00 +7°C° 0.5 mm 4 m/S 745 mmHg 86%
    07:00 +8°C° 0.5 mm 3 m/S 746 mmHg 85%
    08:00 +9°C° 0.4 mm 3 m/S 746 mmHg 81%
    09:00 +10°C° 0.4 mm 3 m/S 746 mmHg 76%
    10:00 +11°C° 0.4 mm 4 m/S 746 mmHg 72%
    11:00 +11°C° 0.1 mm 4 m/S 745 mmHg 69%
    12:00 +11°C° 0.1 mm 4 m/S 745 mmHg 65%
    13:00 +12°C° 0.1 mm 5 m/S 745 mmHg 61%
    14:00 +10°C° 0 mm 5 m/S 744 mmHg 64%
    15:00 +9°C° 0 mm 5 m/S 744 mmHg 67%
    16:00 +9°C° 0 mm 6 m/S 744 mmHg 70%
    17:00 +9°C° 0.2 mm 7 m/S 743 mmHg 71%
    18:00 +7°C° 0.2 mm 8 m/S 743 mmHg 73%
    19:00 +7°C° 0.2 mm 9 m/S 742 mmHg 74%
    20:00 +7°C° 0.9 mm 10 m/S 741 mmHg 76%
    21:00 +7°C° 0.9 mm 11 m/S 740 mmHg 77%
    22:00 +7°C° 0.9 mm 12 m/S 739 mmHg 79%
    23:00 +7°C° 5.5 mm 12 m/S 738 mmHg 82%

    14 Dezember, Samstag

    Zeit Temperatur Niederschläge Wind Luftdruck Luftfeuchtigkeit
    00:00 +7°C° 5.5 mm 12 m/S 737 mmHg 86%
    01:00 +7°C° 5.5 mm 13 m/S 735 mmHg 90%
    02:00 +7°C° 2.7 mm 12 m/S 735 mmHg 90%
    03:00 +7°C° 2.7 mm 11 m/S 736 mmHg 90%
    04:00 +8°C° 2.7 mm 10 m/S 736 mmHg 90%
    05:00 +8°C° 0.8 mm 10 m/S 737 mmHg 86%
    06:00 +8°C° 0.8 mm 11 m/S 737 mmHg 82%
    07:00 +8°C° 0.8 mm 11 m/S 738 mmHg 79%
    08:00 +8°C° 0.7 mm 11 m/S 739 mmHg 80%
    09:00 +8°C° 0.7 mm 11 m/S 740 mmHg 81%
    10:00 +8°C° 0.7 mm 10 m/S 741 mmHg 82%
    11:00 +9°C° 0.3 mm 11 m/S 741 mmHg 80%
    12:00 +9°C° 0.3 mm 11 m/S 742 mmHg 78%
    13:00 +11°C° 0.3 mm 11 m/S 742 mmHg 76%
    14:00 +9°C° 0.1 mm 10 m/S 743 mmHg 77%
    15:00 +10°C° 0.1 mm 9 m/S 744 mmHg 77%
    16:00 +9°C° 0.1 mm 7 m/S 745 mmHg 77%
    17:00 +9°C° 0 mm 6 m/S 746 mmHg 78%
    18:00 +8°C° 0 mm 5 m/S 747 mmHg 78%
    19:00 +8°C° 0 mm 4 m/S 748 mmHg 79%
    20:00 +8°C° 0 mm 3 m/S 749 mmHg 80%
    21:00 +8°C° 0 mm 3 m/S 750 mmHg 80%
    22:00 +8°C° 0 mm 2 m/S 751 mmHg 81%
    23:00 +8°C° 0 mm 2 m/S 751 mmHg 80%

    15 Dezember, Sonntag

    Zeit Temperatur Niederschläge Wind Luftdruck Luftfeuchtigkeit
    00:00 +8°C° 0 mm 2 m/S 752 mmHg 80%
    01:00 +7°C° 0 mm 2 m/S 752 mmHg 79%
    02:00 +7°C° 0 mm 2 m/S 753 mmHg 78%
    03:00 +7°C° 0 mm 2 m/S 753 mmHg 77%
    04:00 +7°C° 0 mm 3 m/S 753 mmHg 75%
    05:00 +7°C° 0 mm 3 m/S 754 mmHg 74%
    06:00 +7°C° 0 mm 2 m/S 754 mmHg 73%
    07:00 +7°C° 0 mm 2 m/S 755 mmHg 71%
    08:00 +9°C° 0 mm 2 m/S 755 mmHg 68%
    09:00 +10°C° 0 mm 2 m/S 756 mmHg 64%
    10:00 +13°C° 0 mm 2 m/S 756 mmHg 60%
    11:00 +14°C° 0 mm 2 m/S 756 mmHg 59%
    12:00 +15°C° 0 mm 2 m/S 756 mmHg 57%
    13:00 +16°C° 0 mm 1 m/S 756 mmHg 55%
    14:00 +15°C° 0 mm 1 m/S 756 mmHg 59%
    15:00 +14°C° 0 mm 2 m/S 756 mmHg 63%
    16:00 +13°C° 0 mm 2 m/S 757 mmHg 67%
    17:00 +13°C° 0 mm 2 m/S 757 mmHg 67%
    18:00 +12°C° 0 mm 2 m/S 757 mmHg 67%
    19:00 +12°C° 0 mm 2 m/S 758 mmHg 67%
    20:00 +12°C° 0 mm 2 m/S 758 mmHg 67%
    21:00 +12°C° 0 mm 2 m/S 759 mmHg 66%
    22:00 +12°C° 0 mm 2 m/S 759 mmHg 66%
    23:00 +12°C° 0 mm 2 m/S 759 mmHg 66%
    Mehr zeigen